Change the Weather History Date:

Wednesday, March 21, 2012

  Actual Average Record
Temperature  
Mean Temperature 48 °F 41 °F  
Max Temperature 66 °F 56 °F 87 °F (1907)
Min Temperature 30 °F 27 °F -5 °F (1927)
Degree Days  
Heating Degree Days 17 24  
Month to date heating degree days 367 557  
Cooling Degree Days 0 0  
Month to date cooling degree days 0 0  
Year to date cooling degree days 0 0  
Moisture  
Dew Point 27 °F    
Average Humidity 45    
Maximum Humidity 69    
Minimum Humidity 20    
Precipitation  
Precipitation 0.01 in 0.04 in 1.00 in (1897)
Sea Level Pressure  
Sea Level Pressure 29.94 in    
Wind  
Wind Speed 11 mph (North)    
Max Wind Speed 22 mph    
Max Gust Speed 26 mph    
Visibility 10 miles    
Events Rain    
T = Trace of Precipitation, MM = Missing Value Source: NWS Daily Summary

Daily Weather History Graph

Daily Weather History Graph

Search for Another Location

Airport or City:

Trip Planner

Search our weather history database for the weather conditions in past years. The results will help you decide how hot, cold, wet, or windy it might be!

Date:

Astronomy

Mar. 21, 2012 Rise Set
Actual Time 6:47 AM MDT 7:00 PM MDT
Civil Twilight 6:20 AM MDT 7:27 PM MDT
Nautical Twilight 5:48 AM MDT 7:59 PM MDT
Astronomical Twilight 5:15 AM MDT 8:32 PM MDT
Moon 5:59 AM MDT (3/21) 6:29 PM MDT (3/21)
Length of Visible Light 13h 07m
Length of Day
12h 12m
Waning Crescent, 1% of the Moon is Illuminated
Mar 21
Waning Crescent
Mar 22
New
Mar 30
First Quarter
Apr 6
Full
Apr 13
Last Quarter

Hourly Weather History & Observations

Time (MDT) Temp. Windchill Dew Point Humidity Pressure Visibility Wind Dir Wind Speed Gust Speed Precip Events Conditions
12:53 AM 37.0 °F 31.6 °F 25.0 °F 62% 29.95 in 10.0 mi NW 6.9 mph - N/A   Clear
1:53 AM 35.1 °F 30.1 °F 24.1 °F 64% 29.97 in 10.0 mi NW 5.8 mph - N/A   Clear
2:53 AM 33.1 °F 28.7 °F 23.0 °F 66% 29.95 in 10.0 mi NW 4.6 mph - N/A   Clear
3:53 AM 32.0 °F 27.5 °F 23.0 °F 69% 29.94 in 10.0 mi NW 4.6 mph - N/A   Clear
4:53 AM 30.9 °F 22.8 °F 21.0 °F 67% 29.95 in 10.0 mi NW 9.2 mph - N/A   Clear
5:53 AM 30.0 °F 22.4 °F 18.0 °F 61% 29.99 in 10.0 mi NW 8.1 mph - N/A   Partly Cloudy
6:53 AM 32.0 °F - 19.9 °F 61% 30.01 in 10.0 mi Calm Calm - N/A   Overcast
7:53 AM 36.0 °F 29.6 °F 21.0 °F 55% 30.02 in 10.0 mi NW 8.1 mph - N/A   Overcast
8:53 AM 42.1 °F 37.7 °F 21.0 °F 43% 30.01 in 10.0 mi North 6.9 mph - N/A   Mostly Cloudy
9:53 AM 52.0 °F - 25.0 °F 35% 30.00 in 10.0 mi NNE 8.1 mph - N/A   Clear
10:53 AM 55.9 °F - 25.0 °F 30% 29.98 in 10.0 mi NE 9.2 mph 16.1 mph N/A   Clear
11:53 AM 59.0 °F - 21.9 °F 24% 29.95 in 10.0 mi NE 15.0 mph 20.7 mph N/A   Clear
12:53 PM 62.1 °F - 21.0 °F 21% 29.94 in 10.0 mi NE 15.0 mph 23.0 mph N/A   Partly Cloudy
1:53 PM 63.0 °F - 23.0 °F 22% 29.93 in 10.0 mi NE 17.3 mph 23.0 mph N/A   Overcast
2:53 PM 64.0 °F - 26.1 °F 24% 29.90 in 10.0 mi NNE 18.4 mph 25.3 mph N/A   Overcast
3:53 PM 64.0 °F - 27.0 °F 25% 29.91 in 10.0 mi NE 18.4 mph 24.2 mph N/A   Scattered Clouds
4:53 PM 64.0 °F - 28.9 °F 27% 29.88 in 10.0 mi NE 17.3 mph 21.9 mph N/A   Clear
5:53 PM 63.0 °F - 30.9 °F 30% 29.90 in 10.0 mi NNE 15.0 mph - N/A   Clear
6:53 PM 57.9 °F - 32.0 °F 37% 29.91 in 10.0 mi NNE 11.5 mph - N/A   Partly Cloudy
7:53 PM 55.4 °F - 33.8 °F 44% 29.89 in 10.0 mi NNE 5.8 mph - N/A   Overcast
8:53 PM 55.0 °F - 37.9 °F 53% 29.91 in 10.0 mi NNE 8.1 mph - N/A   Overcast
9:53 PM 55.9 °F - 41.0 °F 57% 29.89 in 10.0 mi NNE 13.8 mph - N/A   Overcast
10:53 PM 53.1 °F - 44.1 °F 71% 29.88 in 10.0 mi NNE 12.7 mph - 0.00 in Rain Light Rain
11:53 PM 53.1 °F - 45.0 °F 74% 29.86 in 10.0 mi North 16.1 mph - 0.00 in Rain Light Rain